Time,TemperatureF,DewpointF,PressureIn,WindDirection,WindDirectionDegrees,WindSpeedMPH,WindSpeedGustMPH,Humidity,HourlyPrecipIn,Conditions,Clouds,dailyrainin,SoftwareType,DateUTC
2013-09-24 00:01:00,77.2,76.0,29.94,ESE,114,5.0,5.0,96,0.00,RA,,0.00,WeatherDisplay:10.37,2013-09-24 04:01:00,
2013-09-24 00:06:00,77.3,76.1,29.94,ENE,63,5.8,5.8,96,0.00,RA,,0.00,WeatherDisplay:10.37,2013-09-24 04:06:00,
2013-09-24 00:11:00,77.3,76.1,29.94,ENE,73,5.8,5.8,96,0.00,CLR,,0.00,WeatherDisplay:10.37,2013-09-24 04:11:00,
2013-09-24 00:16:00,77.3,75.8,29.93,East,90,3.5,3.5,95,0.00,CLR,,0.00,WeatherDisplay:10.37,2013-09-24 04:16:00,
2013-09-24 00:21:00,77.3,75.8,29.93,East,101,4.6,4.6,95,0.00,CLR,,0.00,WeatherDisplay:10.37,2013-09-24 04:21:00,
2013-09-24 00:26:00,77.2,75.7,29.93,East,88,5.8,5.8,95,0.00,CLR,,0.00,WeatherDisplay:10.37,2013-09-24 04:26:00,
2013-09-24 00:31:00,77.2,75.7,29.93,ENE,76,3.5,3.5,95,0.00,CLR,,0.00,WeatherDisplay:10.37,2013-09-24 04:31:00,
2013-09-24 00:36:00,77.1,75.2,29.93,East,93,3.5,3.5,94,0.00,CLR,,0.00,WeatherDisplay:10.37,2013-09-24 04:36:00,
2013-09-24 00:41:00,77.0,75.1,29.93,East,93,5.8,5.8,94,0.00,CLR,,0.00,WeatherDisplay:10.37,2013-09-24 04:41:00,
2013-09-24 00:46:00,77.0,75.1,29.93,East,90,6.9,6.9,94,0.00,CLR,,0.00,WeatherDisplay:10.37,2013-09-24 04:46:00,
2013-09-24 00:51:00,77.1,75.2,29.93,ENE,74,3.5,3.5,94,0.00,CLR,,0.00,WeatherDisplay:10.37,2013-09-24 04:51:00,
2013-09-24 00:56:00,77.0,75.1,29.92,ESE,105,3.5,3.5,94,0.00,CLR,,0.00,WeatherDisplay:10.37,2013-09-24 04:56:00,
2013-09-24 01:01:00,77.0,75.1,29.92,ESE,122,4.0,4.0,94,0.00,CLR,,0.00,WeatherDisplay:10.37,2013-09-24 05:01:00,
2013-09-24 01:06:00,76.9,74.7,29.92,SE,133,3.5,3.5,93,0.00,CLR,,0.00,WeatherDisplay:10.37,2013-09-24 05:06:00,
2013-09-24 01:11:00,76.7,74.5,29.92,SE,129,3.5,3.5,93,0.00,CLR,,0.00,WeatherDisplay:10.37,2013-09-24 05:11:00,
2013-09-24 01:16:00,76.6,74.4,29.92,SE,128,2.3,2.3,93,0.00,CLR,,0.00,WeatherDisplay:10.37,2013-09-24 05:16:00,
2013-09-24 01:21:00,76.6,74.4,29.91,ESE,102,3.5,3.5,93,0.00,CLR,,0.00,WeatherDisplay:10.37,2013-09-24 05:21:00,
2013-09-24 01:26:00,76.7,74.5,29.91,ESE,102,1.2,1.2,93,0.00,CLR,,0.00,WeatherDisplay:10.37,2013-09-24 05:26:00,
2013-09-24 01:31:00,76.7,74.8,29.92,ESE,102,2.3,2.3,94,0.00,CLR,,0.00,WeatherDisplay:10.37,2013-09-24 05:31:00,
2013-09-24 01:36:00,76.8,74.9,29.92,ESE,102,0.0,0.0,94,0.00,CLR,,0.00,WeatherDisplay:10.37,2013-09-24 05:36:00,
2013-09-24 01:41:00,76.7,74.8,29.92,ESE,102,0.0,0.0,94,0.00,CLR,,0.00,WeatherDisplay:10.37,2013-09-24 05:41:00,
2013-09-24 01:46:00,76.5,74.6,29.92,ESE,102,0.0,0.0,94,0.00,CLR,,0.00,WeatherDisplay:10.37,2013-09-24 05:46:00,
2013-09-24 01:51:00,76.5,74.6,29.92,WNW,297,5.0,5.0,94,0.00,CLR,,0.00,WeatherDisplay:10.37,2013-09-24 05:51:00,
2013-09-24 01:56:00,76.5,74.6,29.92,NNW,327,9.2,9.2,94,0.00,CLR,,0.00,WeatherDisplay:10.37,2013-09-24 05:56:00,
2013-09-24 02:01:00,76.3,74.4,29.91,NNW,347,6.9,6.9,94,0.00,CLR,,0.00,WeatherDisplay:10.37,2013-09-24 06:01:00,
2013-09-24 02:06:00,76.1,73.3,29.91,WNW,283,1.2,1.2,91,0.00,CLR,,0.00,WeatherDisplay:10.37,2013-09-24 06:06:00,
2013-09-24 02:11:00,76.6,74.4,29.92,SSW,201,5.0,5.0,93,0.00,CLR,,0.00,WeatherDisplay:10.37,2013-09-24 06:11:00,
2013-09-24 02:16:00,76.5,74.6,29.93,South,179,13.8,13.8,94,0.13,RA,,0.13,WeatherDisplay:10.37,2013-09-24 06:16:00,
2013-09-24 02:21:00,76.1,74.2,29.92,ESE,116,4.6,4.6,94,0.18,RA,,0.18,WeatherDisplay:10.37,2013-09-24 06:21:00,
2013-09-24 02:26:00,75.9,74.0,29.92,ESE,115,1.2,1.2,94,0.18,RA,,0.18,WeatherDisplay:10.37,2013-09-24 06:26:00,
2013-09-24 02:31:00,75.4,73.6,29.91,ESE,123,0.0,0.0,94,0.18,CLR,,0.18,WeatherDisplay:10.37,2013-09-24 06:31:00,
2013-09-24 02:36:00,75.3,73.8,29.92,SSW,202,4.6,4.6,95,0.18,CLR,,0.18,WeatherDisplay:10.37,2013-09-24 06:36:00,
2013-09-24 02:41:00,75.1,73.6,29.92,SW,215,3.0,3.0,95,0.18,CLR,,0.18,WeatherDisplay:10.37,2013-09-24 06:41:00,
2013-09-24 02:46:00,75.1,73.6,29.93,South,173,9.2,9.2,95,0.18,CLR,,0.18,WeatherDisplay:10.37,2013-09-24 06:46:00,
2013-09-24 02:51:00,75.3,74.1,29.93,SSE,166,9.2,9.2,96,0.18,CLR,,0.18,WeatherDisplay:10.37,2013-09-24 06:51:00,
2013-09-24 02:56:00,75.4,74.2,29.93,SSE,161,11.5,11.5,96,0.18,CLR,,0.18,WeatherDisplay:10.37,2013-09-24 06:56:00,
2013-09-24 03:01:00,75.4,74.2,29.93,SSE,165,11.5,11.5,96,0.19,RA,,0.19,WeatherDisplay:10.37,2013-09-24 07:01:00,
2013-09-24 03:06:00,75.3,74.1,29.92,SSE,150,11.5,11.5,96,0.24,RA,,0.24,WeatherDisplay:10.37,2013-09-24 07:06:00,
2013-09-24 03:11:00,75.0,73.8,29.92,South,180,12.0,12.0,96,0.25,RA,,0.25,WeatherDisplay:10.37,2013-09-24 07:11:00,
2013-09-24 03:16:00,74.8,73.6,29.92,South,178,11.5,11.5,96,0.13,RA,,0.26,WeatherDisplay:10.37,2013-09-24 07:16:00,
2013-09-24 03:21:00,74.6,73.4,29.92,SSW,192,6.9,6.9,96,0.08,RA,,0.26,WeatherDisplay:10.37,2013-09-24 07:21:00,
2013-09-24 03:26:00,74.7,73.5,29.92,SSW,193,4.6,4.6,96,0.08,CLR,,0.26,WeatherDisplay:10.37,2013-09-24 07:26:00,
2013-09-24 03:31:00,74.6,73.4,29.91,South,189,5.0,5.0,96,0.08,CLR,,0.26,WeatherDisplay:10.37,2013-09-24 07:31:00,
2013-09-24 03:36:00,74.5,73.3,29.91,SE,145,9.2,9.2,96,0.08,CLR,,0.26,WeatherDisplay:10.37,2013-09-24 07:36:00,
2013-09-24 03:41:00,74.5,73.3,29.91,SSE,149,4.6,4.6,96,0.08,CLR,,0.26,WeatherDisplay:10.37,2013-09-24 07:41:00,
2013-09-24 03:46:00,74.5,73.3,29.91,SSE,164,4.6,4.6,96,0.08,CLR,,0.26,WeatherDisplay:10.37,2013-09-24 07:46:00,
2013-09-24 03:51:00,74.6,73.4,29.91,South,169,4.6,4.6,96,0.08,CLR,,0.26,WeatherDisplay:10.37,2013-09-24 07:51:00,
2013-09-24 03:56:00,74.6,73.7,29.91,SSE,162,3.5,3.5,97,0.08,CLR,,0.26,WeatherDisplay:10.37,2013-09-24 07:56:00,
2013-09-24 04:01:00,74.6,73.4,29.91,South,184,6.9,6.9,96,0.07,CLR,,0.26,WeatherDisplay:10.37,2013-09-24 08:01:00,
2013-09-24 04:06:00,74.7,73.8,29.91,South,169,1.2,1.2,97,0.02,CLR,,0.26,WeatherDisplay:10.37,2013-09-24 08:06:00,
2013-09-24 04:11:00,74.7,73.8,29.90,South,181,3.5,3.5,97,0.01,CLR,,0.26,WeatherDisplay:10.37,2013-09-24 08:11:00,
2013-09-24 04:16:00,74.7,73.8,29.90,South,180,2.3,2.3,97,0.00,CLR,,0.26,WeatherDisplay:10.37,2013-09-24 08:16:00,
2013-09-24 04:21:00,74.7,73.8,29.90,South,182,2.3,2.3,97,0.00,CLR,,0.26,WeatherDisplay:10.37,2013-09-24 08:21:00,
2013-09-24 04:26:00,74.7,73.8,29.89,South,191,2.0,2.0,97,0.00,CLR,,0.26,WeatherDisplay:10.37,2013-09-24 08:26:00,
2013-09-24 04:31:00,74.7,73.8,29.89,South,186,5.8,5.8,97,0.00,CLR,,0.26,WeatherDisplay:10.37,2013-09-24 08:31:00,
2013-09-24 04:36:00,74.7,73.8,29.89,South,182,4.6,4.6,97,0.00,CLR,,0.26,WeatherDisplay:10.37,2013-09-24 08:36:00,
2013-09-24 04:41:00,74.7,73.5,29.89,South,181,3.5,3.5,96,0.00,CLR,,0.26,WeatherDisplay:10.37,2013-09-24 08:41:00,
2013-09-24 04:46:00,74.7,73.5,29.89,South,182,3.5,3.5,96,0.00,CLR,,0.26,WeatherDisplay:10.37,2013-09-24 08:46:00,
2013-09-24 04:51:00,74.7,73.5,29.89,South,182,1.2,1.2,96,0.00,CLR,,0.26,WeatherDisplay:10.37,2013-09-24 08:51:00,
2013-09-24 04:56:00,74.7,73.5,29.89,South,182,0.0,0.0,96,0.00,CLR,,0.26,WeatherDisplay:10.37,2013-09-24 08:56:00,
2013-09-24 05:01:00,74.6,73.4,29.89,South,182,0.0,0.0,96,0.00,CLR,,0.26,WeatherDisplay:10.37,2013-09-24 09:01:00,
2013-09-24 05:06:00,74.6,73.4,29.89,South,182,0.0,0.0,96,0.00,CLR,,0.26,WeatherDisplay:10.37,2013-09-24 09:06:00,
2013-09-24 05:11:00,74.6,73.4,29.89,South,182,0.0,0.0,96,0.00,CLR,,0.26,WeatherDisplay:10.37,2013-09-24 09:11:00,
2013-09-24 05:16:00,74.6,73.4,29.89,South,182,0.0,0.0,96,0.00,CLR,,0.26,WeatherDisplay:10.37,2013-09-24 09:16:00,
2013-09-24 05:21:00,74.5,73.3,29.89,South,182,0.0,0.0,96,0.00,CLR,,0.26,WeatherDisplay:10.37,2013-09-24 09:21:00,
2013-09-24 05:26:00,74.5,73.3,29.89,South,182,0.0,0.0,96,0.00,CLR,,0.26,WeatherDisplay:10.37,2013-09-24 09:26:00,
2013-09-24 05:31:00,74.4,73.2,29.89,South,182,0.0,0.0,96,0.00,CLR,,0.26,WeatherDisplay:10.37,2013-09-24 09:31:00,
2013-09-24 05:36:00,74.4,73.2,29.89,South,182,0.0,0.0,96,0.00,CLR,,0.26,WeatherDisplay:10.37,2013-09-24 09:36:00,
2013-09-24 05:41:00,74.5,73.3,29.89,South,182,0.0,0.0,96,0.00,CLR,,0.26,WeatherDisplay:10.37,2013-09-24 09:41:00,
2013-09-24 05:46:00,74.5,73.3,29.89,South,182,0.0,0.0,96,0.00,CLR,,0.26,WeatherDisplay:10.37,2013-09-24 09:46:00,
2013-09-24 05:51:00,74.6,73.4,29.89,South,182,0.0,0.0,96,0.00,CLR,,0.26,WeatherDisplay:10.37,2013-09-24 09:51:00,
2013-09-24 05:56:00,74.5,73.3,29.89,South,182,0.0,0.0,96,0.00,CLR,,0.26,WeatherDisplay:10.37,2013-09-24 09:56:00,
2013-09-24 06:01:00,74.5,73.3,29.89,South,182,0.0,0.0,96,0.00,CLR,,0.26,WeatherDisplay:10.37,2013-09-24 10:01:00,
2013-09-24 06:06:00,74.7,73.5,29.88,South,182,0.0,0.0,96,0.00,CLR,,0.26,WeatherDisplay:10.37,2013-09-24 10:06:00,
2013-09-24 06:11:00,74.8,73.6,29.89,South,182,1.2,1.2,96,0.00,CLR,,0.26,WeatherDisplay:10.37,2013-09-24 10:11:00,
2013-09-24 06:16:00,74.8,73.6,29.88,South,181,1.2,1.2,96,0.00,CLR,,0.26,WeatherDisplay:10.37,2013-09-24 10:16:00,
2013-09-24 06:21:00,74.8,73.6,29.89,South,181,1.2,0.0,96,0.00,CLR,,0.26,WeatherDisplay:10.37,2013-09-24 10:21:00,
2013-09-24 06:26:00,74.9,73.7,29.89,South,180,2.3,2.3,96,0.00,CLR,,0.26,WeatherDisplay:10.37,2013-09-24 10:26:00,
2013-09-24 06:31:00,74.9,73.7,29.89,SSW,192,2.3,2.3,96,0.00,CLR,,0.26,WeatherDisplay:10.37,2013-09-24 10:31:00,
2013-09-24 06:36:00,75.0,73.8,29.89,SSW,192,2.3,2.3,96,0.00,CLR,,0.26,WeatherDisplay:10.37,2013-09-24 10:36:00,
2013-09-24 06:41:00,75.0,73.8,29.89,South,190,3.5,3.5,96,0.00,CLR,,0.26,WeatherDisplay:10.37,2013-09-24 10:41:00,
2013-09-24 06:46:00,75.0,73.8,29.89,South,190,2.3,2.3,96,0.00,CLR,,0.26,WeatherDisplay:10.37,2013-09-24 10:46:00,
2013-09-24 06:51:00,75.0,73.8,29.90,South,190,3.5,3.5,96,0.00,CLR,,0.26,WeatherDisplay:10.37,2013-09-24 10:51:00,
2013-09-24 06:56:00,75.0,73.8,29.90,South,190,0.0,0.0,96,0.00,CLR,,0.26,WeatherDisplay:10.37,2013-09-24 10:56:00,
2013-09-24 07:01:00,75.0,73.8,29.90,South,190,0.0,0.0,96,0.00,CLR,,0.26,WeatherDisplay:10.37,2013-09-24 11:01:00,
2013-09-24 07:06:00,75.0,73.8,29.90,South,190,0.0,0.0,96,0.00,CLR,,0.26,WeatherDisplay:10.37,2013-09-24 11:06:00,
2013-09-24 07:11:00,75.0,73.8,29.90,South,190,0.0,0.0,96,0.00,CLR,,0.26,WeatherDisplay:10.37,2013-09-24 11:11:00,
2013-09-24 07:16:00,75.0,73.8,29.90,South,190,0.0,0.0,96,0.00,CLR,,0.26,WeatherDisplay:10.37,2013-09-24 11:16:00,
2013-09-24 07:21:00,75.0,73.8,29.90,South,190,0.0,0.0,96,0.00,CLR,,0.26,WeatherDisplay:10.37,2013-09-24 11:21:00,
2013-09-24 07:26:00,75.0,73.8,29.91,South,190,0.0,0.0,96,0.00,CLR,,0.26,WeatherDisplay:10.37,2013-09-24 11:26:00,
2013-09-24 07:31:00,75.1,73.9,29.91,South,190,0.0,0.0,96,0.00,CLR,,0.26,WeatherDisplay:10.37,2013-09-24 11:31:00,
2013-09-24 07:36:00,75.2,74.3,29.91,South,190,0.0,0.0,97,0.00,CLR,,0.26,WeatherDisplay:10.37,2013-09-24 11:36:00,
2013-09-24 07:41:00,75.4,74.2,29.90,South,190,0.0,0.0,96,0.00,CLR,,0.26,WeatherDisplay:10.37,2013-09-24 11:41:00,
2013-09-24 07:46:00,75.3,74.1,29.91,South,190,0.0,0.0,96,0.00,CLR,,0.26,WeatherDisplay:10.37,2013-09-24 11:46:00,
2013-09-24 07:51:00,75.3,73.8,29.91,South,190,0.0,0.0,95,0.00,CLR,,0.26,WeatherDisplay:10.37,2013-09-24 11:51:00,
2013-09-24 07:56:00,75.4,74.2,29.91,South,190,0.0,0.0,96,0.00,CLR,,0.26,WeatherDisplay:10.37,2013-09-24 11:56:00,
2013-09-24 08:01:00,75.5,74.3,29.91,South,190,0.0,0.0,96,0.00,CLR,,0.26,WeatherDisplay:10.37,2013-09-24 12:01:00,
2013-09-24 08:06:00,75.6,74.1,29.91,South,187,0.0,0.0,95,0.00,CLR,,0.26,WeatherDisplay:10.37,2013-09-24 12:06:00,
2013-09-24 08:11:00,75.7,74.5,29.91,South,187,0.0,0.0,96,0.00,CLR,,0.26,WeatherDisplay:10.37,2013-09-24 12:11:00,
2013-09-24 08:16:00,75.8,74.6,29.91,South,187,0.0,0.0,96,0.00,CLR,,0.26,WeatherDisplay:10.37,2013-09-24 12:16:00,
2013-09-24 08:21:00,76.1,74.9,29.92,South,187,0.0,0.0,96,0.00,CLR,,0.26,WeatherDisplay:10.37,2013-09-24 12:21:00,
2013-09-24 08:26:00,76.4,75.2,29.92,South,187,0.0,0.0,96,0.01,RA,,0.27,WeatherDisplay:10.37,2013-09-24 12:26:00,
2013-09-24 08:31:00,76.6,75.4,29.92,South,187,0.0,0.0,96,0.01,RA,,0.27,WeatherDisplay:10.37,2013-09-24 12:31:00,
2013-09-24 08:36:00,76.8,75.3,29.92,South,187,0.0,0.0,95,0.01,CLR,,0.27,WeatherDisplay:10.37,2013-09-24 12:36:00,
2013-09-24 08:41:00,76.9,75.4,29.92,South,187,0.0,0.0,95,0.01,CLR,,0.27,WeatherDisplay:10.37,2013-09-24 12:41:00,
2013-09-24 08:46:00,77.1,75.6,29.92,South,187,0.0,0.0,95,0.01,CLR,,0.27,WeatherDisplay:10.37,2013-09-24 12:46:00,
2013-09-24 08:51:00,77.3,75.4,29.92,South,187,0.0,0.0,94,0.01,CLR,,0.27,WeatherDisplay:10.37,2013-09-24 12:51:00,
2013-09-24 08:56:00,77.4,75.5,29.93,South,187,0.0,0.0,94,0.01,CLR,,0.27,WeatherDisplay:10.37,2013-09-24 12:56:00,
2013-09-24 09:01:00,77.6,75.7,29.93,South,187,0.0,0.0,94,0.01,CLR,,0.27,WeatherDisplay:10.37,2013-09-24 13:01:00,
2013-09-24 09:06:00,77.7,75.8,29.93,South,187,0.0,0.0,94,0.01,CLR,,0.27,WeatherDisplay:10.37,2013-09-24 13:06:00,
2013-09-24 09:11:00,78.0,76.1,29.93,South,187,0.0,0.0,94,0.01,CLR,,0.27,WeatherDisplay:10.37,2013-09-24 13:11:00,
2013-09-24 09:16:00,78.2,76.0,29.93,South,187,0.0,0.0,93,0.01,CLR,,0.27,WeatherDisplay:10.37,2013-09-24 13:16:00,
2013-09-24 09:21:00,78.5,76.3,29.93,South,187,0.0,0.0,93,0.01,CLR,,0.27,WeatherDisplay:10.37,2013-09-24 13:21:00,
2013-09-24 09:26:00,78.7,76.5,29.93,South,187,0.0,0.0,93,0.00,CLR,,0.27,WeatherDisplay:10.37,2013-09-24 13:26:00,
2013-09-24 09:31:00,79.0,76.8,29.93,South,187,0.0,0.0,93,0.00,CLR,,0.27,WeatherDisplay:10.37,2013-09-24 13:31:00,
2013-09-24 09:36:00,79.3,76.8,29.93,South,187,0.0,0.0,92,0.00,CLR,,0.27,WeatherDisplay:10.37,2013-09-24 13:36:00,
2013-09-24 09:41:00,79.8,77.3,29.93,South,181,1.2,1.2,92,0.00,CLR,,0.27,WeatherDisplay:10.37,2013-09-24 13:41:00,
2013-09-24 09:46:00,80.2,77.3,29.93,SSE,154,3.5,3.5,91,0.00,CLR,,0.27,WeatherDisplay:10.37,2013-09-24 13:46:00,
2013-09-24 09:51:00,80.6,77.7,29.93,SE,145,2.3,2.3,91,0.00,CLR,,0.27,WeatherDisplay:10.37,2013-09-24 13:51:00,
2013-09-24 09:56:00,81.0,77.8,29.93,SE,145,4.0,4.0,90,0.00,CLR,,0.27,WeatherDisplay:10.37,2013-09-24 13:56:00,
2013-09-24 10:01:00,81.3,78.1,29.93,South,190,2.3,0.0,90,0.00,CLR,,0.27,WeatherDisplay:10.37,2013-09-24 14:01:00,
2013-09-24 10:06:00,81.6,78.0,29.93,South,174,4.6,4.6,89,0.00,CLR,,0.27,WeatherDisplay:10.37,2013-09-24 14:06:00,
2013-09-24 10:11:00,82.0,78.4,29.93,South,173,4.6,4.6,89,0.00,CLR,,0.27,WeatherDisplay:10.37,2013-09-24 14:11:00,
2013-09-24 10:16:00,82.4,78.8,29.93,South,181,2.3,2.3,89,0.00,CLR,,0.27,WeatherDisplay:10.37,2013-09-24 14:16:00,
2013-09-24 10:21:00,82.7,78.8,29.93,SSE,168,6.9,6.9,88,0.00,CLR,,0.27,WeatherDisplay:10.37,2013-09-24 14:21:00,
2013-09-24 10:26:00,82.8,78.9,29.93,SSW,205,10.4,10.4,88,0.00,CLR,,0.27,WeatherDisplay:10.37,2013-09-24 14:26:00,
2013-09-24 10:31:00,82.9,78.6,29.93,WSW,244,5.8,5.8,87,0.00,CLR,,0.27,WeatherDisplay:10.37,2013-09-24 14:31:00,
2013-09-24 10:36:00,83.1,79.2,29.93,SSW,202,7.0,7.0,88,0.00,CLR,,0.27,WeatherDisplay:10.37,2013-09-24 14:36:00,
2013-09-24 10:41:00,83.7,79.1,29.93,SSE,161,11.5,11.5,86,0.00,CLR,,0.27,WeatherDisplay:10.37,2013-09-24 14:41:00,
2013-09-24 10:46:00,84.1,79.5,29.93,SSW,196,9.2,9.2,86,0.00,CLR,,0.27,WeatherDisplay:10.37,2013-09-24 14:46:00,
2013-09-24 10:51:00,84.4,79.4,29.93,SW,219,9.2,9.2,85,0.00,CLR,,0.27,WeatherDisplay:10.37,2013-09-24 14:51:00,
2013-09-24 10:56:00,84.5,79.5,29.93,SSW,196,4.6,4.6,85,0.00,CLR,,0.27,WeatherDisplay:10.37,2013-09-24 14:56:00,
2013-09-24 11:01:00,84.7,79.3,29.93,SSW,200,10.4,10.4,84,0.00,CLR,,0.27,WeatherDisplay:10.37,2013-09-24 15:01:00,
2013-09-24 11:06:00,85.3,79.9,29.93,SW,225,5.8,5.8,84,0.00,CLR,,0.27,WeatherDisplay:10.37,2013-09-24 15:06:00,
2013-09-24 11:11:00,85.6,79.5,29.92,SSW,211,10.4,10.4,82,0.00,CLR,,0.27,WeatherDisplay:10.37,2013-09-24 15:11:00,
2013-09-24 11:16:00,85.7,79.6,29.92,WSW,240,6.9,6.9,82,0.00,CLR,,0.27,WeatherDisplay:10.37,2013-09-24 15:16:00,
2013-09-24 11:21:00,85.8,79.3,29.92,West,263,10.4,10.4,81,0.00,CLR,,0.27,WeatherDisplay:10.37,2013-09-24 15:21:00,
2013-09-24 11:26:00,85.7,79.6,29.92,SW,222,6.9,6.9,82,0.00,CLR,,0.27,WeatherDisplay:10.37,2013-09-24 15:26:00,
2013-09-24 11:31:00,85.8,80.0,29.92,South,177,3.5,3.5,83,0.00,CLR,,0.27,WeatherDisplay:10.37,2013-09-24 15:31:00,
2013-09-24 11:36:00,86.7,79.8,29.92,South,188,6.9,6.9,80,0.00,CLR,,0.27,WeatherDisplay:10.37,2013-09-24 15:36:00,
2013-09-24 11:41:00,86.8,79.5,29.92,WSW,246,8.1,8.1,79,0.00,CLR,,0.27,WeatherDisplay:10.37,2013-09-24 15:41:00,
2013-09-24 11:46:00,87.1,79.4,29.92,SW,218,10.4,10.4,78,0.00,CLR,,0.27,WeatherDisplay:10.37,2013-09-24 15:46:00,
2013-09-24 11:51:00,86.9,78.8,29.92,SW,227,11.5,11.5,77,0.00,CLR,,0.27,WeatherDisplay:10.37,2013-09-24 15:51:00,
2013-09-24 11:56:00,86.7,79.4,29.91,SSW,196,8.1,8.1,79,0.00,CLR,,0.27,WeatherDisplay:10.37,2013-09-24 15:56:00,
2013-09-24 12:01:00,86.6,78.9,29.91,SW,226,11.5,11.5,78,0.00,CLR,,0.27,WeatherDisplay:10.37,2013-09-24 16:01:00,
2013-09-24 12:06:00,86.9,79.6,29.91,South,176,6.0,6.0,79,0.00,CLR,,0.27,WeatherDisplay:10.37,2013-09-24 16:06:00,
2013-09-24 12:11:00,87.6,79.1,29.91,SSW,209,11.5,11.5,76,0.00,CLR,,0.27,WeatherDisplay:10.37,2013-09-24 16:11:00,
2013-09-24 12:16:00,88.0,78.3,29.91,WSW,246,10.4,10.4,73,0.00,CLR,,0.27,WeatherDisplay:10.37,2013-09-24 16:16:00,
2013-09-24 12:21:00,88.1,79.2,29.90,South,185,8.1,8.1,75,0.00,CLR,,0.27,WeatherDisplay:10.37,2013-09-24 16:21:00,
2013-09-24 12:26:00,88.4,79.1,29.90,SW,232,5.8,5.8,74,0.00,CLR,,0.27,WeatherDisplay:10.37,2013-09-24 16:26:00,
2013-09-24 12:31:00,89.1,79.3,29.90,WSW,248,11.5,11.5,73,0.00,CLR,,0.27,WeatherDisplay:10.37,2013-09-24 16:31:00,
2013-09-24 12:36:00,88.7,78.5,29.89,SSW,194,4.6,4.6,72,0.00,CLR,,0.27,WeatherDisplay:10.37,2013-09-24 16:36:00,
2013-09-24 12:41:00,88.4,78.6,29.89,South,176,4.6,4.6,73,0.00,CLR,,0.27,WeatherDisplay:10.37,2013-09-24 16:41:00,
2013-09-24 12:46:00,88.1,77.9,29.90,SW,216,13.8,13.8,72,0.00,CLR,,0.27,WeatherDisplay:10.37,2013-09-24 16:46:00,
2013-09-24 12:51:00,87.3,78.0,29.90,SSW,205,11.5,11.5,74,0.00,CLR,,0.27,WeatherDisplay:10.37,2013-09-24 16:51:00,
2013-09-24 12:56:00,86.5,77.6,29.90,SSW,192,13.8,13.8,75,0.00,CLR,,0.27,WeatherDisplay:10.37,2013-09-24 16:56:00,
2013-09-24 13:01:00,84.7,77.1,29.90,West,270,11.5,11.5,78,0.00,CLR,,0.28,WeatherDisplay:10.37,2013-09-24 17:01:00,
2013-09-24 13:06:00,82.1,77.1,29.89,West,271,10.4,10.4,85,0.02,RA,,0.30,WeatherDisplay:10.37,2013-09-24 17:06:00,
2013-09-24 13:11:00,80.3,76.8,29.88,WSW,244,12.7,12.7,89,0.06,RA,,0.34,WeatherDisplay:10.37,2013-09-24 17:11:00,
2013-09-24 13:16:00,79.4,76.5,29.88,WSW,249,6.0,6.0,91,0.10,RA,,0.37,WeatherDisplay:10.37,2013-09-24 17:16:00,
2013-09-24 13:21:00,78.9,76.7,29.88,West,259,11.5,11.5,93,0.11,RA,,0.38,WeatherDisplay:10.37,2013-09-24 17:21:00,
2013-09-24 13:26:00,78.6,76.4,29.88,SW,234,9.2,9.2,93,0.11,RA,,0.38,WeatherDisplay:10.37,2013-09-24 17:26:00,
2013-09-24 13:31:00,77.9,75.4,29.88,West,259,13.8,13.8,92,0.12,RA,,0.39,WeatherDisplay:10.37,2013-09-24 17:31:00,
2013-09-24 13:36:00,77.3,74.8,29.88,WSW,242,10.0,10.0,92,0.17,RA,,0.46,WeatherDisplay:10.37,2013-09-24 17:36:00,
2013-09-24 13:41:00,76.7,73.9,29.88,SW,225,8.1,8.1,91,0.23,RA,,0.50,WeatherDisplay:10.37,2013-09-24 17:41:00,
2013-09-24 13:46:00,76.3,74.1,29.86,WSW,246,6.9,6.9,93,0.29,RA,,0.57,WeatherDisplay:10.37,2013-09-24 17:46:00,
2013-09-24 13:51:00,76.5,74.3,29.86,SW,216,6.9,6.9,93,0.32,RA,,0.59,WeatherDisplay:10.37,2013-09-24 17:51:00,
2013-09-24 13:56:00,76.7,74.8,29.87,West,263,10.4,10.4,94,0.33,RA,,0.61,WeatherDisplay:10.37,2013-09-24 17:56:00,
2013-09-24 14:01:00,76.8,74.6,29.88,WSW,246,11.5,11.5,93,0.35,RA,,0.62,WeatherDisplay:10.37,2013-09-24 18:01:00,
2013-09-24 14:06:00,76.6,74.7,29.89,WNW,290,18.4,18.4,94,0.38,RA,,0.68,WeatherDisplay:10.37,2013-09-24 18:06:00,
2013-09-24 14:11:00,76.0,74.5,29.89,SW,233,15.0,15.0,95,0.42,RA,,0.76,WeatherDisplay:10.37,2013-09-24 18:11:00,
2013-09-24 14:16:00,75.0,72.5,29.89,WSW,237,9.2,9.2,92,0.49,RA,,0.89,WeatherDisplay:10.37,2013-09-24 18:16:00,
2013-09-24 14:21:00,74.6,72.1,29.87,South,186,0.0,0.0,92,0.55,RA,,0.93,WeatherDisplay:10.37,2013-09-24 18:21:00,
2013-09-24 14:26:00,74.6,72.4,29.86,SSW,207,0.0,0.0,93,0.55,RA,,0.93,WeatherDisplay:10.37,2013-09-24 18:26:00,
2013-09-24 14:31:00,74.8,73.3,29.86,SSW,207,0.0,0.0,95,0.54,,,0.93,WeatherDisplay:10.37,2013-09-24 18:31:00,
2013-09-24 14:36:00,75.0,73.2,29.85,SSW,207,0.0,0.0,94,0.49,CLR,,0.93,WeatherDisplay:10.37,2013-09-24 18:36:00,
2013-09-24 14:41:00,75.1,73.6,29.85,SSW,210,0.0,0.0,95,0.43,CLR,,0.93,WeatherDisplay:10.37,2013-09-24 18:41:00,
2013-09-24 14:46:00,75.3,73.8,29.86,SW,236,1.2,0.0,95,0.37,CLR,,0.93,WeatherDisplay:10.37,2013-09-24 18:46:00,
2013-09-24 14:51:00,75.4,74.2,29.86,NW,313,3.5,3.5,96,0.34,CLR,,0.93,WeatherDisplay:10.37,2013-09-24 18:51:00,
2013-09-24 14:56:00,75.6,74.4,29.86,WNW,302,2.3,2.3,96,0.33,CLR,,0.93,WeatherDisplay:10.37,2013-09-24 18:56:00,
2013-09-24 15:01:00,75.9,74.7,29.86,WNW,298,2.3,2.3,96,0.31,CLR,,0.93,WeatherDisplay:10.37,2013-09-24 19:01:00,
2013-09-24 15:06:00,76.1,74.9,29.86,NW,323,3.5,3.5,96,0.26,CLR,,0.93,WeatherDisplay:10.37,2013-09-24 19:06:00,
2013-09-24 15:11:00,76.2,75.0,29.86,NW,323,2.3,2.3,96,0.18,CLR,,0.93,WeatherDisplay:10.37,2013-09-24 19:11:00,
2013-09-24 15:16:00,76.4,75.2,29.86,NW,323,2.3,2.3,96,0.07,CLR,,0.93,WeatherDisplay:10.37,2013-09-24 19:16:00,
2013-09-24 15:21:00,76.5,75.3,29.87,NW,323,1.2,0.0,96,0.00,CLR,,0.93,WeatherDisplay:10.37,2013-09-24 19:21:00,
2013-09-24 15:26:00,76.7,75.5,29.86,NW,323,0.0,0.0,96,0.00,CLR,,0.93,WeatherDisplay:10.37,2013-09-24 19:26:00,
2013-09-24 15:31:00,76.9,75.7,29.86,NW,323,0.0,0.0,96,0.00,CLR,,0.93,WeatherDisplay:10.37,2013-09-24 19:31:00,
2013-09-24 15:36:00,77.0,75.8,29.86,North,5,2.3,2.3,96,0.00,CLR,,0.93,WeatherDisplay:10.37,2013-09-24 19:36:00,
2013-09-24 15:41:00,77.2,76.0,29.86,ESE,114,3.5,3.5,96,0.00,CLR,,0.93,WeatherDisplay:10.37,2013-09-24 19:41:00,
2013-09-24 15:46:00,77.4,75.9,29.86,East,84,3.5,3.5,95,0.00,CLR,,0.93,WeatherDisplay:10.37,2013-09-24 19:46:00,
2013-09-24 15:51:00,77.2,75.3,29.86,East,96,3.5,3.5,94,0.00,CLR,,0.93,WeatherDisplay:10.37,2013-09-24 19:51:00,
2013-09-24 15:56:00,77.3,75.4,29.86,East,96,2.3,2.3,94,0.00,CLR,,0.93,WeatherDisplay:10.37,2013-09-24 19:56:00,
2013-09-24 16:01:00,77.4,75.5,29.86,East,96,2.3,2.3,94,0.00,CLR,,0.93,WeatherDisplay:10.37,2013-09-24 20:01:00,
2013-09-24 16:06:00,77.6,75.7,29.86,East,96,0.0,0.1,94,0.00,CLR,,0.93,WeatherDisplay:10.37,2013-09-24 20:06:00,
2013-09-24 16:11:00,77.8,75.9,29.85,East,96,0.0,0.0,94,0.00,CLR,,0.93,WeatherDisplay:10.37,2013-09-24 20:11:00,
2013-09-24 16:16:00,78.1,76.2,29.85,East,96,0.0,0.0,94,0.00,CLR,,0.93,WeatherDisplay:10.37,2013-09-24 20:16:00,
2013-09-24 16:21:00,78.2,76.3,29.85,East,96,2.0,2.0,94,0.00,CLR,,0.93,WeatherDisplay:10.37,2013-09-24 20:21:00,
2013-09-24 16:26:00,78.3,76.4,29.85,NE,54,3.0,3.0,94,0.00,CLR,,0.93,WeatherDisplay:10.37,2013-09-24 20:26:00,
2013-09-24 16:31:00,78.4,76.5,29.85,NNW,328,3.5,3.5,94,0.00,CLR,,0.93,WeatherDisplay:10.37,2013-09-24 20:31:00,
2013-09-24 16:36:00,78.2,76.3,29.85,NNW,346,4.6,4.6,94,0.00,CLR,,0.93,WeatherDisplay:10.37,2013-09-24 20:36:00,
2013-09-24 16:41:00,78.1,75.9,29.85,NNW,344,3.5,3.5,93,0.00,CLR,,0.93,WeatherDisplay:10.37,2013-09-24 20:41:00,
2013-09-24 16:46:00,78.0,76.1,29.85,NNW,330,3.0,3.0,94,0.00,CLR,,0.93,WeatherDisplay:10.37,2013-09-24 20:46:00,
2013-09-24 16:51:00,77.9,76.0,29.84,NNW,331,3.5,3.5,94,0.00,CLR,,0.93,WeatherDisplay:10.37,2013-09-24 20:51:00,
2013-09-24 16:56:00,78.0,76.1,29.84,NW,324,3.5,3.5,94,0.00,CLR,,0.93,WeatherDisplay:10.37,2013-09-24 20:56:00,
2013-09-24 17:01:00,78.0,76.1,29.84,NW,325,1.0,1.0,94,0.00,CLR,,0.93,WeatherDisplay:10.37,2013-09-24 21:01:00,
2013-09-24 17:06:00,78.1,76.2,29.84,NW,324,1.2,1.2,94,0.00,CLR,,0.93,WeatherDisplay:10.37,2013-09-24 21:06:00,
2013-09-24 17:11:00,78.0,76.1,29.84,NNE,14,3.5,3.5,94,0.00,CLR,,0.93,WeatherDisplay:10.37,2013-09-24 21:11:00,
2013-09-24 17:16:00,78.0,76.1,29.85,NNE,14,0.0,0.2,94,0.00,CLR,,0.93,WeatherDisplay:10.37,2013-09-24 21:16:00,
2013-09-24 17:21:00,78.1,76.6,29.85,NNE,14,0.0,0.0,95,0.00,CLR,,0.93,WeatherDisplay:10.37,2013-09-24 21:21:00,
2013-09-24 17:26:00,78.1,76.2,29.85,NNE,14,2.3,2.3,94,0.00,CLR,,0.93,WeatherDisplay:10.37,2013-09-24 21:26:00,
2013-09-24 17:31:00,78.0,76.1,29.85,NNE,14,1.2,1.2,94,0.00,CLR,,0.93,WeatherDisplay:10.37,2013-09-24 21:31:00,
2013-09-24 17:36:00,78.0,76.1,29.85,NNE,14,1.2,1.2,94,0.00,CLR,,0.93,WeatherDisplay:10.37,2013-09-24 21:36:00,
2013-09-24 17:41:00,77.9,76.0,29.85,NNE,14,1.2,1.2,94,0.00,CLR,,0.93,WeatherDisplay:10.37,2013-09-24 21:41:00,
2013-09-24 17:46:00,77.9,76.0,29.85,NNW,348,2.3,2.3,94,0.00,CLR,,0.93,WeatherDisplay:10.37,2013-09-24 21:46:00,
2013-09-24 17:51:00,77.9,76.0,29.85,NNW,348,1.2,0.0,94,0.00,CLR,,0.93,WeatherDisplay:10.37,2013-09-24 21:51:00,
2013-09-24 17:56:00,77.9,76.0,29.84,NNW,348,0.0,0.0,94,0.00,CLR,,0.93,WeatherDisplay:10.37,2013-09-24 21:56:00,
2013-09-24 18:01:00,77.9,76.0,29.84,NNW,334,3.0,3.0,94,0.00,CLR,,0.93,WeatherDisplay:10.37,2013-09-24 22:01:00,
2013-09-24 18:06:00,77.8,75.9,29.84,NNW,327,3.5,3.5,94,0.00,CLR,,0.93,WeatherDisplay:10.37,2013-09-24 22:06:00,
2013-09-24 18:11:00,77.6,75.7,29.85,WNW,303,5.8,5.8,94,0.00,CLR,,0.93,WeatherDisplay:10.37,2013-09-24 22:11:00,
2013-09-24 18:16:00,77.6,76.1,29.86,NW,310,11.5,11.5,95,0.00,CLR,,0.93,WeatherDisplay:10.37,2013-09-24 22:16:00,
2013-09-24 18:21:00,77.2,75.3,29.86,West,279,11.5,11.5,94,0.00,CLR,,0.93,WeatherDisplay:10.37,2013-09-24 22:21:00,
2013-09-24 18:26:00,76.9,75.0,29.86,SW,233,9.2,9.2,94,0.00,CLR,,0.93,WeatherDisplay:10.37,2013-09-24 22:26:00,
2013-09-24 18:31:00,76.6,74.7,29.86,WSW,250,9.2,9.2,94,0.00,CLR,,0.93,WeatherDisplay:10.37,2013-09-24 22:31:00,
2013-09-24 18:36:00,76.1,73.9,29.86,WNW,288,12.7,12.7,93,0.01,RA,,0.94,WeatherDisplay:10.37,2013-09-24 22:36:00,
2013-09-24 18:41:00,75.8,73.9,29.85,WNW,292,9.2,9.2,94,0.01,RA,,0.94,WeatherDisplay:10.37,2013-09-24 22:41:00,
2013-09-24 18:46:00,75.6,73.8,29.85,WNW,285,4.6,6.0,94,0.01,CLR,,0.94,WeatherDisplay:10.37,2013-09-24 22:46:00,
2013-09-24 18:51:00,75.2,73.4,29.85,West,259,7.0,7.0,94,0.01,CLR,,0.94,WeatherDisplay:10.37,2013-09-24 22:51:00,
2013-09-24 18:56:00,75.1,73.3,29.84,WNW,286,8.1,8.1,94,0.02,RA,,0.95,WeatherDisplay:10.37,2013-09-24 22:56:00,
2013-09-24 19:01:00,75.0,73.2,29.84,SW,232,4.6,4.6,94,0.02,RA,,0.95,WeatherDisplay:10.37,2013-09-24 23:01:00,
2013-09-24 19:06:00,74.8,73.0,29.84,West,263,4.6,4.7,94,0.02,,,0.95,WeatherDisplay:10.37,2013-09-24 23:06:00,
2013-09-24 19:11:00,74.6,72.8,29.85,WSW,249,9.2,9.2,94,0.02,CLR,,0.95,WeatherDisplay:10.37,2013-09-24 23:11:00,
2013-09-24 19:16:00,74.5,72.7,29.85,West,270,9.2,9.2,94,0.02,CLR,,0.95,WeatherDisplay:10.37,2013-09-24 23:16:00,
2013-09-24 19:21:00,74.4,72.6,29.85,West,281,6.9,6.9,94,0.02,CLR,,0.95,WeatherDisplay:10.37,2013-09-24 23:21:00,
2013-09-24 19:26:00,74.3,72.5,29.85,West,265,4.6,4.6,94,0.02,CLR,,0.95,WeatherDisplay:10.37,2013-09-24 23:26:00,
2013-09-24 19:31:00,74.2,72.4,29.84,WSW,257,4.6,4.6,94,0.02,CLR,,0.95,WeatherDisplay:10.37,2013-09-24 23:31:00,
2013-09-24 19:36:00,74.1,72.3,29.85,WSW,248,3.5,3.5,94,0.01,CLR,,0.95,WeatherDisplay:10.37,2013-09-24 23:36:00,
2013-09-24 19:41:00,74.1,72.3,29.85,West,273,1.2,1.5,94,0.01,CLR,,0.95,WeatherDisplay:10.37,2013-09-24 23:41:00,
2013-09-24 19:46:00,74.0,72.2,29.85,West,263,3.5,3.5,94,0.01,CLR,,0.95,WeatherDisplay:10.37,2013-09-24 23:46:00,
2013-09-24 19:51:00,73.9,72.1,29.85,WSW,254,5.8,5.8,94,0.01,CLR,,0.95,WeatherDisplay:10.37,2013-09-24 23:51:00,
2013-09-24 19:56:00,74.0,72.2,29.86,WSW,257,3.5,3.5,94,0.00,CLR,,0.95,WeatherDisplay:10.37,2013-09-24 23:56:00,
2013-09-24 20:01:00,74.0,72.2,29.85,WSW,256,3.5,3.5,94,0.00,CLR,,0.95,WeatherDisplay:10.37,2013-09-25 00:01:00,
2013-09-24 20:06:00,74.0,72.2,29.85,WSW,256,1.2,1.2,94,0.00,CLR,,0.95,WeatherDisplay:10.37,2013-09-25 00:06:00,
2013-09-24 20:11:00,74.0,72.2,29.86,West,260,3.5,3.5,94,0.00,CLR,,0.95,WeatherDisplay:10.37,2013-09-25 00:11:00,
2013-09-24 20:16:00,73.9,72.1,29.86,WSW,242,4.0,4.0,94,0.00,CLR,,0.95,WeatherDisplay:10.37,2013-09-25 00:16:00,
2013-09-24 20:21:00,73.9,72.1,29.86,WSW,237,1.0,1.0,94,0.00,CLR,,0.95,WeatherDisplay:10.37,2013-09-25 00:21:00,
2013-09-24 20:26:00,73.8,72.0,29.86,WSW,238,1.2,1.2,94,0.00,CLR,,0.95,WeatherDisplay:10.37,2013-09-25 00:26:00,
2013-09-24 20:31:00,73.7,71.9,29.87,SW,236,2.0,2.0,94,0.00,CLR,,0.95,WeatherDisplay:10.37,2013-09-25 00:31:00,
2013-09-24 20:36:00,73.6,71.4,29.86,WSW,254,2.3,2.3,93,0.00,CLR,,0.95,WeatherDisplay:10.37,2013-09-25 00:36:00,
2013-09-24 20:41:00,73.7,71.9,29.87,SW,234,5.0,5.0,94,0.00,CLR,,0.95,WeatherDisplay:10.37,2013-09-25 00:41:00,
2013-09-24 20:46:00,73.7,71.9,29.87,SSW,213,3.5,3.5,94,0.00,CLR,,0.95,WeatherDisplay:10.37,2013-09-25 00:46:00,
2013-09-24 20:51:00,73.7,71.9,29.87,SSW,201,5.8,5.8,94,0.00,CLR,,0.95,WeatherDisplay:10.37,2013-09-25 00:51:00,
2013-09-24 20:56:00,73.8,72.0,29.87,SW,219,6.0,6.0,94,0.00,CLR,,0.95,WeatherDisplay:10.37,2013-09-25 00:56:00,
2013-09-24 21:01:00,73.8,72.0,29.86,SSW,202,8.1,8.1,94,0.00,CLR,,0.95,WeatherDisplay:10.37,2013-09-25 01:01:00,
2013-09-24 21:06:00,73.6,71.4,29.87,WSW,252,4.6,4.6,93,0.00,CLR,,0.95,WeatherDisplay:10.37,2013-09-25 01:06:00,
2013-09-24 21:11:00,73.5,71.7,29.87,West,274,3.5,3.5,94,0.00,CLR,,0.95,WeatherDisplay:10.37,2013-09-25 01:11:00,
2013-09-24 21:16:00,73.5,71.7,29.88,NW,309,2.3,2.3,94,0.00,CLR,,0.95,WeatherDisplay:10.37,2013-09-25 01:16:00,
2013-09-24 21:21:00,73.5,71.7,29.88,NW,322,2.3,2.3,94,0.00,CLR,,0.95,WeatherDisplay:10.37,2013-09-25 01:21:00,
2013-09-24 21:26:00,73.4,71.6,29.88,NW,322,2.3,2.3,94,0.00,CLR,,0.95,WeatherDisplay:10.37,2013-09-25 01:26:00,
2013-09-24 21:31:00,73.4,71.6,29.88,NW,322,2.3,2.3,94,0.00,CLR,,0.95,WeatherDisplay:10.37,2013-09-25 01:31:00,
2013-09-24 21:36:00,73.4,71.6,29.88,NW,313,2.3,0.0,94,0.00,CLR,,0.95,WeatherDisplay:10.37,2013-09-25 01:36:00,
2013-09-24 21:41:00,73.3,71.5,29.88,WNW,298,3.0,3.0,94,0.00,CLR,,0.95,WeatherDisplay:10.37,2013-09-25 01:41:00,
2013-09-24 21:46:00,73.3,71.5,29.88,WNW,298,1.2,1.2,94,0.00,CLR,,0.95,WeatherDisplay:10.37,2013-09-25 01:46:00,
2013-09-24 21:51:00,73.2,71.4,29.88,West,267,1.2,0.0,94,0.00,CLR,,0.95,WeatherDisplay:10.37,2013-09-25 01:51:00,
2013-09-24 21:56:00,73.2,71.4,29.88,West,267,1.2,1.2,94,0.00,CLR,,0.95,WeatherDisplay:10.37,2013-09-25 01:56:00,
2013-09-24 22:01:00,73.2,71.4,29.88,SSW,199,4.0,4.0,94,0.00,CLR,,0.95,WeatherDisplay:10.37,2013-09-25 02:01:00,
2013-09-24 22:06:00,73.1,71.3,29.87,WSW,244,2.3,2.3,94,0.00,CLR,,0.95,WeatherDisplay:10.37,2013-09-25 02:06:00,
2013-09-24 22:11:00,73.1,71.3,29.87,SW,223,4.6,4.6,94,0.00,CLR,,0.95,WeatherDisplay:10.37,2013-09-25 02:11:00,
2013-09-24 22:16:00,73.1,71.3,29.87,SSW,213,4.0,4.0,94,0.00,CLR,,0.95,WeatherDisplay:10.37,2013-09-25 02:16:00,
2013-09-24 22:21:00,73.1,71.3,29.87,SW,219,4.6,4.6,94,0.00,CLR,,0.95,WeatherDisplay:10.37,2013-09-25 02:21:00,
2013-09-24 22:26:00,73.2,71.4,29.87,WSW,251,3.5,3.5,94,0.00,CLR,,0.95,WeatherDisplay:10.37,2013-09-25 02:26:00,
2013-09-24 22:31:00,73.2,71.4,29.87,WSW,246,2.3,2.3,94,0.00,CLR,,0.95,WeatherDisplay:10.37,2013-09-25 02:31:00,
2013-09-24 22:36:00,73.2,71.7,29.87,SW,221,3.5,3.5,95,0.00,CLR,,0.95,WeatherDisplay:10.37,2013-09-25 02:36:00,
2013-09-24 22:41:00,73.2,71.4,29.87,SW,222,2.0,2.0,94,0.00,CLR,,0.95,WeatherDisplay:10.37,2013-09-25 02:41:00,
2013-09-24 22:46:00,73.3,71.8,29.87,SW,222,3.0,3.0,95,0.00,CLR,,0.95,WeatherDisplay:10.37,2013-09-25 02:46:00,
2013-09-24 22:51:00,73.3,71.8,29.87,SW,217,3.5,3.5,95,0.00,CLR,,0.95,WeatherDisplay:10.37,2013-09-25 02:51:00,
2013-09-24 22:56:00,73.4,71.9,29.88,SW,217,3.5,3.5,95,0.00,CLR,,0.95,WeatherDisplay:10.37,2013-09-25 02:56:00,
2013-09-24 23:02:00,73.3,71.5,29.87,SW,225,2.3,2.3,94,0.00,CLR,,0.95,WeatherDisplay:10.37,2013-09-25 03:02:00,
2013-09-24 23:07:00,73.3,71.5,29.87,SW,225,2.3,2.3,94,0.00,CLR,,0.95,WeatherDisplay:10.37,2013-09-25 03:07:00,
2013-09-24 23:12:00,73.4,71.6,29.87,SW,234,3.5,3.5,94,0.00,CLR,,0.95,WeatherDisplay:10.37,2013-09-25 03:12:00,
2013-09-24 23:17:00,73.4,71.6,29.87,SW,221,5.0,5.0,94,0.00,CLR,,0.95,WeatherDisplay:10.37,2013-09-25 03:17:00,
2013-09-24 23:22:00,73.5,71.7,29.87,WSW,246,3.5,3.5,94,0.00,CLR,,0.95,WeatherDisplay:10.37,2013-09-25 03:22:00,
2013-09-24 23:27:00,73.5,71.7,29.87,West,263,4.6,4.6,94,0.00,CLR,,0.95,WeatherDisplay:10.37,2013-09-25 03:27:00,
2013-09-24 23:32:00,73.5,71.7,29.87,West,273,4.6,4.6,94,0.00,CLR,,0.95,WeatherDisplay:10.37,2013-09-25 03:32:00,
2013-09-24 23:37:00,73.4,71.3,29.87,WSW,250,5.8,5.8,93,0.00,CLR,,0.95,WeatherDisplay:10.37,2013-09-25 03:37:00,
2013-09-24 23:42:00,73.4,71.3,29.86,SW,229,4.6,4.6,93,0.00,CLR,,0.95,WeatherDisplay:10.37,2013-09-25 03:42:00,
2013-09-24 23:47:00,73.4,70.9,29.86,SW,225,8.1,8.1,92,0.00,CLR,,0.95,WeatherDisplay:10.37,2013-09-25 03:47:00,
2013-09-24 23:52:00,73.3,70.8,29.86,SW,224,4.6,4.6,92,0.00,CLR,,0.95,WeatherDisplay:10.37,2013-09-25 03:52:00,
2013-09-24 23:57:00,73.4,70.9,29.86,SW,228,5.8,5.8,92,0.00,CLR,,0.95,WeatherDisplay:10.37,2013-09-25 03:57:00,